Location: Allos
(44.2333°N, 6.6333°E)
Time: 18:18:52
(UTC+00:00)

Cosmos 2228 Rocket - Pass Details

Date: 27 April 2021
Orbit: 617 x 652 km, 82.5° (Epoch: 05 May)

Event Time Altitude Azimuth Distance (km) Brightness Sun altitude
Exits shadow 23:08:18 30° 19° (NNE) 1,131 4.8 -31.4°
Drops below altitude 10° 23:10:33 10° 13° (NNE) 1,995 6.4 -31.4°
Sets 23:12:48 0° 11° (N) 2,909 7.5 -31.5°
